THORAD AGENA D DEB, 4766

Orbit data source: Space-Track

THORAD AGENA D DEB, 4766 is space debris in SSO originally from a launch on Wed, 08 Apr 1970 UTC launched from the Air Force Western Test Range (AFWTR). Debris objects in space refer to the collection of defunct objects orbiting the Earth. Examples of debris include non-operational satellites, rocket bodies, and fragments generated from explosions, collisions, or faulty payload assembly.

Loading next visibility...
Identifier
4766, 1970-025DL
Orbit
SSO
Country
Flag of USUS
Related business
Manufacturer
Unknown
Mission
Spacecraft
Bus & Motor
Unknown
Mass
Unknown
Launch date (UTC)
1970-04-08 (56 years ago)
Launch vehicle
Unknown
Launch site
Air Force Western Test Range (AFWTR)
Object type
Payload
Rocket body
Debris
Shape & HBR
Unknown shape, 0.2 m
Radar Cross Section
Small (<0.1 m²)

Expand to show TLE details & history
Last TLE update: 10 hours ago

TLE from 10 hours ago
0 THORAD AGENA D DEB
1  4766U 70025DL  26122.92161462  .00000056  00000-0  14803-3 0  9991
2  4766 100.1280 275.0667 0010012 104.2953  49.2509 13.55937698770490
Epoch: 2026-05-02T22:07Z
TLE epoch observation values (Epoch: 2026-05-02T22:07:07.503Z)
Latitude
25.95879°
Longitude
-92.58387°
Altitude
1,048.671 km
Speed
7.332 km/s
True Right ascension
06h 40m 07s
True Declination
25° 49' 44"
Sunlit
Object was in daylight at epoch
Visualization orbit readout
Latitude
Unknown
Longitude
Unknown
Altitude
Unknown
Speed
Unknown
Apparent Right ascension
Unknown
Apparent Declination
Unknown
Sunlit
N/A
Visualization observer readout
Local Sidereal Time
15:26:38
Azimuth
Unknown
Elevation
Unknown
Doppler factor
Unknown
Orbital elements
Apogee altitude
1,055.243 km
Perigee altitude
1,040.373 km
Semi-major axis
7,425.945 km
Eccentricity
0.001
Inclination
100.128°
RAAN
275.0667°
Arg. of periapsis
104.2953°
True anomaly
49.33789°
Mean anomaly
49.2509°
Eccentric anomaly
49.29439°
Mean motion
3.39169 °/min
Orbital period
106.14 mins
BSTAR
0.00014803

Documentation

Showing up to 5 results
|